Regional Weather Roundup
Issued by NWS

Home | Current Version | Previous Version | Graphics & Text | Print | Product List | Glossary On
Versions: 1 2 3 4 5 6 7 8 9 10 11 12 13 14 15 16 17 18 19 20 21 22 23 24 25 26 27 28 29 30 31 32 33 34 35 36 37 38 39 40 41 42 43 44 45 46 47 48 49 50
000
ASUS43 KIND 041009
RWRIN

WEATHER ROUNDUP FOR INDIANA
NATIONAL WEATHER SERVICE INDIANAPOLIS IN
600 AM EDT FRI SEP 04 2015

NOTE: "FAIR" INDICATES FEW OR NO CLOUDS BELOW 12,000 FEET WITH NO
SIGNIFICANT WEATHER AND/OR OBSTRUCTIONS TO VISIBILITY.

* - STATION DOES NOT REPORT WEATHER SUCH AS PRECIPITATION OR FOG.

+ - STATION NOT QUALITY CONTROLLED BY THE NATIONAL WEATHER SERVICE.
    USE DATA WITH CAUTION...ESPECIALLY DEWPOINT AND RELATIVE
    HUMIDITY OBSERVATIONS.

INZ001>003-010>013-019-020-041100-
NORTHWEST INDIANA

CITY           SKY/WX    TMP DP  RH WIND       PRES   REMARKS
GARY /AIRPORT/ CLEAR     68  64  88 CALM      29.98R
KNOX *+          N/A     64  64 100 CALM      29.97R
LA PORTE +     PTCLDY   N/A N/A N/A CALM      29.98S
MICHIGAN CITY+ MOCLDY    64  64 100 CALM      29.98R
MONTICELLO +   CLEAR     67  67 100 CALM      29.97R FOG
RENSSELAER +   CLEAR     68  68 100 CALM      29.98R FOG
VALPARAISO     CLEAR     67  65  93 CALM      29.98S

$$

LMZ046-743>745-041100-
SOUTHERN LAKE MICHIGAN

STATION/POSITION TIME  TEMP    WIND        PRES    WAVE
                       AIR SEA DIR/SP/G            HT
                 (UTC) (F)     (DEG/KT/KT) (MB)    (FT)
BURNS HARBOR     0900   72      20/  6/  6 1015.2R
MICHIGAN CITY    0900   71     350/  7/  7   N/A
5NW MICH CITY    1000   71 73   10/  6/  8   N/A     2

$$

INZ004-005-014>016-021>024-041100-
NORTH CENTRAL INDIANA

CITY           SKY/WX    TMP DP  RH WIND       PRES   REMARKS
GOSHEN         MOCLDY    68  66  93 SW3       29.97R FOG
LOGANSPORT +     N/A     64  61  88 CALM      29.98R FOG
PERU/GRISSOM   CLEAR     67  65  94 SW5       29.97R
ROCHESTER +    CLEAR     70  70 100 NW3       29.98R FOG
SOUTH BEND     MOCLDY    67  65  93 CALM      29.98R
WARSAW +       CLEAR     68  66  94 CALM      29.98R FOG

$$

INZ006>009-017-018-025>027-041100-
NORTHEAST INDIANA

CITY           SKY/WX    TMP DP  RH WIND       PRES   REMARKS
ANGOLA *+        N/A     70  61  73 CALM      29.97S VSB 1
AUBURN +       PTCLDY    70  66  88 CALM      29.98R
FORT WAYNE     MOCLDY    69  66  90 CALM      29.97R
HUNTINGTON +   CLEAR     69  65  86 CALM      29.97R

$$

INZ028-029-035-036-043>045-051>053-041100-
WEST CENTRAL INDIANA

CITY           SKY/WX    TMP DP  RH WIND       PRES   REMARKS
CRAWFORDSVL +  CLEAR     64  64 100 CALM      29.99R
GREENCASTLE +  CLEAR     64  63  94 CALM      30.00S FOG
LAFAYETTE      CLEAR     67  66  97 CALM      29.97S FOG
TERRE HAUTE    CLEAR     67  65  93 CALM      29.99R

$$

INZ030>032-037>040-046>048-054>057-064-065-041100-
CENTRAL INDIANA

CITY           SKY/WX    TMP DP  RH WIND       PRES   REMARKS
FISHERS *+     CLEAR     70  68  94 CALM      30.00R
FRANKFORT +    CLEAR    N/A N/A N/A SW3       30.00S HAZE
GREENWOOD *+   CLEAR     70  64  83 S5        30.00S
INDIANAPOLIS   CLEAR     71  66  84 SW7       29.98S
-EAGLE CREEK   CLEAR     70  67  90 CALM      29.98S
KOKOMO *+      CLEAR     70  63  78 W5        29.98R
MARION +       CLEAR     66  60  82 CALM      29.99R
MT COMFORT *+  CLEAR     68 N/A N/A S3        30.00R
SHELBYVILLE    PTCLDY    69  66  90 S3        29.99S FOG
ZIONSVILLE +   CLEAR     66  63  87 SW3       29.99S

$$

INZ033-034-041-042-049-050-058-059-041100-
EAST CENTRAL INDIANA

CITY           SKY/WX    TMP DP  RH WIND       PRES   REMARKS
MUNCIE         MOCLDY    71  67  87 SW6       29.99R

$$

INZ060-061-067>069-081>083-085>088-041100-
SOUTHWEST INDIANA

CITY           SKY/WX    TMP DP  RH WIND       PRES   REMARKS
EVANSVILLE     CLEAR     71  68  90 CALM      29.99S FOG
HUNTINGBURG *+ CLEAR     66  64  94 CALM      30.00S
WASHINGTON +   CLEAR     67  63  87 CALM      29.99S

$$

INZ062-063-066-070>080-084-089>092-041100-
SOUTH CENTRAL AND SOUTHEAST INDIANA

CITY           SKY/WX    TMP DP  RH WIND       PRES   REMARKS
BLOOMINGTON    CLEAR     67  65  93 CALM      30.01R FOG
MADISON *+       N/A     64  63  94 CALM      30.03S
NORTH VERNON + CLEAR     68  68 100 CALM      30.01S FOG
SEYMOUR +      FOG       64  64 100 CALM      30.00S VSB 1/4

$$



USA.gov is the U.S. government's official web portal to all federal, state and local government web resources and services.